TimeCEST,TemperatureF,Dew PointF,Humidity,Sea Level PressureIn,VisibilityMPH,Wind Direction,Wind SpeedMPH,Gust SpeedMPH,PrecipitationIn,Events,Conditions,WindDirDegrees,DateUTC
12:15 AM,68.0,51.8,56,29.92,-9999.0,West,4.5,-,N/A,,Clear,260,2013-07-22 22:15:00
12:45 AM,68.0,51.8,56,29.92,-9999.0,West,6.7,-,N/A,,Clear,260,2013-07-22 22:45:00
1:15 AM,66.2,51.8,60,29.92,-9999.0,WSW,6.7,-,N/A,,Clear,240,2013-07-22 23:15:00
1:45 AM,68.0,50.0,52,29.92,-9999.0,West,6.7,-,N/A,,Clear,260,2013-07-22 23:45:00
2:15 AM,64.4,51.8,64,29.92,-9999.0,West,4.5,-,N/A,,Clear,260,2013-07-23 00:15:00
2:45 AM,64.4,51.8,64,29.92,-9999.0,West,6.7,-,N/A,,Clear,260,2013-07-23 00:45:00
3:15 AM,64.4,51.8,64,29.92,-9999.0,West,4.5,-,N/A,,Clear,280,2013-07-23 01:15:00
3:45 AM,-9999,-9999,N/A,-9999,-9999.0,West,6.7,-,N/A,,Clear,280,2013-07-23 01:45:00
4:15 AM,64.4,51.8,64,29.89,-9999.0,West,4.5,-,N/A,,Clear,270,2013-07-23 02:15:00
4:45 AM,60.8,53.6,77,29.92,-9999.0,West,4.5,-,N/A,,Clear,280,2013-07-23 02:45:00
5:15 AM,62.6,53.6,72,29.89,-9999.0,WNW,6.7,-,N/A,,Clear,290,2013-07-23 03:15:00
5:45 AM,62.6,53.6,72,29.92,-9999.0,NW,4.5,-,N/A,,Clear,310,2013-07-23 03:45:00
6:15 AM,64.4,53.6,68,29.92,-9999.0,NW,4.5,-,N/A,,Clear,310,2013-07-23 04:15:00
6:45 AM,68.0,53.6,60,29.92,-9999.0,NW,4.5,-,N/A,,Clear,320,2013-07-23 04:45:00
7:15 AM,69.8,53.6,56,29.92,-9999.0,North,4.5,-,N/A,,Clear,350,2013-07-23 05:15:00
7:45 AM,69.8,53.6,56,29.92,-9999.0,North,4.5,-,N/A,,Clear,350,2013-07-23 05:45:00
8:15 AM,71.6,55.4,57,29.92,-9999.0,North,4.5,-,N/A,,Clear,360,2013-07-23 06:15:00
8:45 AM,75.2,55.4,50,29.92,-9999.0,North,4.5,-,N/A,,Clear,10,2013-07-23 06:45:00
9:15 AM,78.8,55.4,44,29.92,-9999.0,ENE,6.7,-,N/A,,Clear,60,2013-07-23 07:15:00
9:45 AM,78.8,53.6,42,29.92,-9999.0,ENE,6.7,-,N/A,,Clear,70,2013-07-23 07:45:00
10:15 AM,82.4,51.8,35,29.92,-9999.0,NE,2.2,-,N/A,,Clear,50,2013-07-23 08:15:00
10:45 AM,82.4,51.8,35,29.92,-9999.0,NE,2.2,-,N/A,,Clear,50,2013-07-23 08:45:00
11:15 AM,82.4,50.0,32,29.92,-9999.0,WNW,2.2,-,N/A,,Clear,300,2013-07-23 09:15:00
11:45 AM,82.4,51.8,35,29.92,-9999.0,NW,6.7,-,N/A,,Clear,310,2013-07-23 09:45:00
12:15 PM,82.4,51.8,35,29.92,-9999.0,WSW,6.7,-,N/A,,Clear,250,2013-07-23 10:15:00
12:45 PM,-9999,-9999,N/A,-9999,-9999.0,WNW,6.7,-,N/A,,Clear,300,2013-07-23 10:45:00
1:15 PM,86.0,46.4,25,29.89,-9999.0,WNW,6.7,-,N/A,,Clear,290,2013-07-23 11:15:00
1:45 PM,87.8,42.8,21,29.89,-9999.0,NNW,8.9,-,N/A,,Clear,330,2013-07-23 11:45:00
2:15 PM,87.8,46.4,24,29.89,-9999.0,NNW,6.7,-,N/A,,Clear,340,2013-07-23 12:15:00
2:45 PM,89.6,46.4,22,29.89,-9999.0,NNW,8.9,-,N/A,,Clear,330,2013-07-23 12:45:00
3:15 PM,87.8,46.4,24,29.89,-9999.0,NW,11.2,-,N/A,,Clear,320,2013-07-23 13:15:00
3:45 PM,-9999,-9999,N/A,-9999,-9999.0,WNW,6.7,-,N/A,,Clear,300,2013-07-23 13:45:00
4:15 PM,89.6,46.4,22,29.89,-9999.0,WNW,11.2,-,N/A,,Clear,290,2013-07-23 14:15:00
4:45 PM,89.6,48.2,24,29.86,-9999.0,WNW,8.9,-,N/A,,Clear,290,2013-07-23 14:45:00
5:15 PM,89.6,48.2,24,29.86,6.2,WNW,11.2,-,N/A,,Scattered Clouds,300,2013-07-23 15:15:00
5:45 PM,87.8,46.4,24,29.86,-9999.0,WNW,8.9,-,N/A,,Clear,290,2013-07-23 15:45:00
6:15 PM,87.8,46.4,24,29.86,-9999.0,NW,6.7,-,N/A,,Clear,310,2013-07-23 16:15:00
6:45 PM,-9999,-9999,N/A,-9999,-9999.0,WNW,6.7,-,N/A,,Clear,300,2013-07-23 16:45:00
7:15 PM,86.0,48.2,27,29.86,-9999.0,NW,4.5,-,N/A,,Clear,320,2013-07-23 17:15:00
7:45 PM,84.2,50.0,30,29.86,-9999.0,NW,4.5,-,N/A,,Clear,310,2013-07-23 17:45:00
8:15 PM,80.6,51.8,37,29.86,-9999.0,NW,4.5,-,N/A,,Clear,310,2013-07-23 18:15:00
8:45 PM,78.8,53.6,42,29.86,-9999.0,WNW,2.2,-,N/A,,Clear,300,2013-07-23 18:45:00
9:15 PM,77.0,53.6,44,29.86,-9999.0,West,4.5,-,N/A,,Clear,270,2013-07-23 19:15:00
9:45 PM,-9999,-9999,N/A,-9999,-9999.0,NW,6.7,-,N/A,,Clear,310,2013-07-23 19:45:00
10:15 PM,75.2,53.6,47,29.89,-9999.0,West,4.5,-,N/A,,Clear,270,2013-07-23 20:15:00
10:45 PM,71.6,53.6,53,29.89,-9999.0,West,4.5,-,N/A,,Clear,280,2013-07-23 20:45:00
11:15 PM,69.8,53.6,56,29.89,-9999.0,NE,6.7,-,N/A,,Clear,50,2013-07-23 21:15:00
11:45 PM,68.0,53.6,60,29.89,-9999.0,NE,6.7,-,N/A,,Clear,50,2013-07-23 21:45:00